Volver al catálogo

STARLINK-36197

ActivoComunicacionesVLEO
NORAD 67205·PAYLOAD·🇺🇸 United States

Lanzado Dec 17, 2025 desde Vandenberg Space Force Base

Loading…

Próximos Pases (próximas 24 horas)

TLE

ActualizadoSource: CelesTrak SupGP

Época: Sep 14, 2026, 23:19 UTC

1 67205C 25304P   26257.97201389 -.00009821  00000+0 -82292-3 0  2579
2 67205  70.0010  57.0571 0002833 270.3448 354.8243 14.98340154    18

Sigue STARLINK-36197 en tiempo real con AllMySat

Download on the App Store